Temperature
15 15 15 15 15 15 15 15 15 15 15 16 15 15 15 15 15 15 15 15 15 15 15 15 15 15 15 15 15 15 15 15 15 15 15 15 15 15 15 15 15 15 15
15 15 15 15 15 15 15 15 15 15 15 15 15 15 15 15 15 15 15 14 14 15 15 15 15 15 14 14 14 14 15 15 15 15 15 15 15 15 15 15 15 15 15
15 15 15 15 15 15 15 15 15 15 15 15 15 15 15 15 15 15 14 14 14 14 14 14 14 14 14 14 14 14 14 14 14 14 14 14 14 14 14 14 14 14 14
15 15 15 15 15 15 15 15 15 15 15 15 15 15 15 15 15 14 14 14 14 14 14 14 14 14 14 14 14 14 14 14 14 14 14 14 14 14 14 14 14 14 14
15 15 15 15 14 14 15 15 14 15 15 14 14 15 15 15 15 14 14 14 14 14 14 14 14 14 14 14 14 14 13 14 14 14 14 14 14 14 14 14 14 14 14
15 15 15 14 14 14 14 14 14 14 14 14 14 14 15 14 14 14 14 14 14 14 14 14 14 13 14 13 13 13 13 13 14 13 14 14 14 14 14 13 14 14 14
15 14 14 14 14 14 14 14 14 14 14 14 14 14 14 14 14 14 14 14 14 13 13 13 13 13 13 13 13 13 13 13 13 13 13 13 13 13 13 13 13 13 13
15 14 14 14 14 14 14 14 14 14 14 14 14 14 14 14 14 14 14 14 14 13 13 13 13 13 13 13 13 13 13 13 13 13 13 13 13 13 13 13 13 13 13
14 14 14 14 14 14 14 13 13 13 14 14 14 14 14 14 13 14 14 14 13 13 13 13 13 13 13 13 13 13 13 13 13 13 13 13 13 13 13 13 13 13 13
14 14 14 14 14 13 13 13 13 13 13 13 13 13 13 14 13 13 13 13 13 13 13 13 13 13 13 13 13 13 13 13 13 13 13 13 13 13 13 13 13 13 13
14 14 14 14 13 13 13 13 13 13 13 13 13 13 13 13 13 13 13 13 13 13 13 13 13 13 13 13 12 13 13 13 13 13 13 13 13 13 13 12 13 12 12
14 14 14 13 13 13 13 13 13 13 13 13 13 13 13 13 13 13 13 13 13 13 13 13 13 13 12 12 12 12 12 12 12 12 12 12 12 12 12 12 12 12 12
14 14 13 13 13 13 13 13 13 13 13 12 12 12 13 13 13 13 12 12 12 13 13 13 13 12 12 12 12 12 12 12 12 12 12 12 12 12 12 12 12 12 12
14 14 13 13 13 13 13 13 12 12 12 12 12 12 12 12 12 12 12 12 12 12 12 12 12 12 12 12 12 12 12 12 12 12 12 12 12 12 12 12 12 12 11
14 14 13 13 13 13 13 12 12 12 12 12 12 12 12 12 12 12 12 12 11 11 11 12 12 12 12 12 12 12 12 11 12 12 12 12 11 11 11 12 11 11 11
13 13 13 13 13 13 12 12 12 12 12 12 12 12 12 12 12 12 12 12 11 11 11 11 11 12 12 11 11 11 11 11 11 11 11 11 11 11 11 11 11 11 11
13 13 13 13 12 12 12 12 12 12 12 12 12 12 11 11 11 11 11 11 11 11 11 11 11 11 11 11 11 11 11 11 11 11 11 11 11 11 11 11 11 11 11
13 13 12 12 12 12 12 12 12 12 12 12 11 11 11 11 11 11 11 11 11 11 10 10 10 10 10 11 11 11 10 10 10 10 10 11 11 11 11 11 11 11 11
13 12 12 12 12 12 11 11 11 11 11 11 11 11 11 11 11 11 11 10 10 10 10 10 10 10 10 10 10 10 10 10 10 10 10 10 10 10 10 10 10 10 10
12 12 12 12 11 11 11 11 11 11 11 11 11 11 11 11 10 10 10 10 10 10 10 10 9 10 9 10 10 10 10 10 10 10 10 10 10 10 10 10 10 10 10
11 11 11 11 11 11 11 11 11 11 11 10 10 10 10 10 10 10 10 10 10 9 9 9 9 9 9 9 9 9 9 9 9 9 9 10 10 9 10 10 10 10 10
11 11 11 11 11 11 11 11 10 10 10 10 10 10 10 10 10 10 10 9 9 9 9 9 9 9 9 9 9 9 9 9 9 9 9 9 9 9 9 9 9 9 9
11 11 11 11 11 10 10 10 10 10 10 10 10 10 9 9 9 9 9 9 9 9 9 9 9 9 8 8 8 8 8 8 8 8 8 8 9 9 9 9 9 9 9
10 10 10 10 10 10 10 10 10 10 9 9 9 9 9 9 9 9 9 9 9 9 9 8 8 8 8 8 8 8 8 8 8 8 8 8 8 8 8 8 8 8 8
10 10 9 10 10 10 10 10 9 9 9 9 9 9 9 9 8 8 8 8 8 8 8 8 8 8 8 8 8 8 8 8 7 8 8 8 8 8 8 8 8 8 8
9 9 9 9 9 9 9 9 9 9 9 9 9 8 8 8 8 8 8 8 7 8 8 8 8 8 8 8 8 7 7 7 7 7 7 7 7 7 7 7 7 8 7
Wind_Speed
1 2 3 3 3 4 4 3 4 5 6 6 7 7 6 7 7 8 8 9 9 9 9 9 9 9 9 9 9 9 8 8 8 8 8 8 8 8 8 8 8 9 9
2 3 3 3 3 4 3 3 3 4 4 5 5 6 5 6 6 6 7 7 8 8 8 8 7 7 7 7 8 8 7 7 8 8 8 8 9 9 9 9 8 8 9
4 3 2 2 3 4 4 3 4 3 3 4 4 4 4 5 5 5 5 6 6 7 7 8 7 7 7 7 7 7 7 7 8 8 9 9 10 10 9 9 9 8 8
5 4 2 2 3 4 3 2 3 3 3 3 3 3 3 3 3 4 4 5 6 5 6 6 6 6 6 7 7 7 8 8 9 9 9 10 10 10 9 9 8 8 8
5 5 2 2 4 3 2 2 3 2 2 2 2 1 1 1 2 3 3 4 5 5 5 4 5 5 6 6 6 6 7 8 8 8 8 8 8 8 8 8 7 7 7
5 5 2 2 3 2 2 2 3 3 2 2 2 2 1 0 1 2 2 3 4 4 5 4 4 3 5 7 7 7 7 7 7 7 7 7 7 7 7 6 6 6 6
4 4 2 2 2 2 1 2 2 2 1 1 2 2 2 1 2 2 1 2 2 3 3 4 4 4 4 5 6 6 7 7 7 7 6 7 7 6 6 5 5 5 5
2 3 2 1 1 2 2 2 1 1 1 1 1 1 2 2 3 1 1 1 2 2 2 3 4 4 5 5 4 5 5 6 6 6 6 6 6 6 6 5 5 4 4
3 3 2 1 1 1 1 1 1 1 1 2 1 1 0 1 2 2 1 1 1 2 2 2 3 3 5 5 5 4 4 4 5 5 5 5 5 6 6 5 4 3 3
2 2 1 1 1 1 1 0 1 1 1 2 2 2 1 0 1 1 2 1 1 1 1 1 2 3 4 5 5 5 4 3 3 3 4 4 4 5 5 5 4 3 3
1 1 1 1 1 1 1 1 1 1 1 1 1 2 2 2 1 0 2 2 2 1 0 1 1 2 2 4 5 4 4 3 2 2 2 3 3 3 4 3 3 3 3
1 1 1 0 1 1 1 1 1 1 1 2 2 1 1 1 2 1 1 2 2 2 1 1 0 1 2 3 4 4 3 3 2 2 1 1 1 2 3 3 2 2 2
1 1 1 0 1 1 1 1 1 1 1 1 2 2 2 2 1 1 2 2 2 2 1 1 1 2 2 3 4 4 5 4 4 3 2 1 0 1 1 2 1 2 2
2 2 2 1 1 1 1 1 1 1 1 1 2 1 2 2 2 2 1 1 3 3 2 2 1 1 1 3 3 4 4 5 5 4 3 2 2 1 1 1 1 0 1
1 2 2 1 1 1 1 1 0 1 1 1 1 1 1 1 2 2 2 1 0 2 3 3 2 2 1 2 3 2 4 5 6 5 4 3 2 2 2 2 1 1 1
1 2 2 2 1 1 1 1 1 1 1 1 1 1 1 1 1 1 1 2 1 1 2 3 3 3 2 0 2 2 2 4 5 5 5 5 4 3 3 3 2 2 2
2 2 2 2 1 1 1 1 0 0 0 1 1 1 1 1 1 1 1 1 1 1 2 4 3 3 3 2 1 2 2 3 4 5 5 5 5 4 4 4 3 3 2
2 1 2 2 1 1 1 1 1 0 0 1 1 2 2 1 1 1 1 1 1 2 2 3 3 2 2 2 1 1 1 2 4 5 5 5 5 5 5 5 4 3 3
1 1 1 2 1 1 1 0 1 1 1 1 1 1 2 1 2 2 2 1 2 2 2 2 3 2 2 2 2 2 1 1 2 4 5 6 6 6 6 5 5 4 4
1 1 1 1 2 2 1 1 1 1 1 2 2 1 1 0 1 2 2 2 2 2 2 2 2 2 2 2 1 1 2 1 2 2 2 4 5 5 6 6 5 5 4
0 1 1 1 1 2 1 1 1 2 2 2 2 2 1 1 2 2 2 2 2 2 2 2 2 2 2 2 2 2 2 2 2 1 1 2 2 3 4 5 6 6 6
0 0 0 1 1 1 1 1 2 2 2 2 2 2 2 1 3 3 4 4 3 2 2 2 2 2 3 3 2 2 2 2 3 2 1 2 2 2 3 4 5 6 6
0 0 0 0 1 2 2 1 2 2 2 2 2 1 2 2 3 2 3 4 4 5 4 3 3 3 4 3 2 3 2 3 4 3 1 3 2 2 3 4 6 6 6
0 0 1 1 0 2 2 1 2 2 3 2 2 1 1 1 3 3 3 3 3 4 4 4 3 4 3 3 2 3 4 4 3 2 1 3 3 2 3 3 6 7 6
0 1 1 1 0 1 2 1 1 2 2 3 2 2 1 1 4 5 3 3 4 4 4 4 5 5 5 6 4 2 2 2 4 3 2 2 3 2 2 2 5 7 6
1 1 1 1 1 1 1 1 1 1 2 3 2 2 2 3 4 4 2 2 4 5 4 5 5 5 5 5 4 2 2 2 3 3 2 1 2 1 1 2 2 4 4
Wind_Direction
55 73 77 69 57 49 46 30 27 35 28 32 39 47 53 65 66 78 82 76 74 69 62 59 55 53 53 52 51 52 55 58 58 61 63 65 70 74 76 80 76 72 70
68 63 61 58 55 51 50 45 36 50 33 38 34 40 43 60 73 89 98 84 76 69 61 58 56 56 53 50 49 51 56 57 57 59 62 65 69 72 70 70 72 73 72
75 75 66 53 49 45 43 51 37 49 42 39 29 33 39 56 68 79 97 99 83 68 64 60 56 56 54 55 55 57 60 58 57 56 57 62 66 68 67 64 65 70 71
74 77 70 54 58 48 43 42 41 35 34 33 21 16 30 60 66 76 90 106 106 89 73 69 62 59 53 53 58 64 66 65 64 63 61 62 63 63 64 62 62 66 66
68 74 65 60 61 56 35 29 38 34 24 22 5 7 32 41 50 61 61 86 99 108 107 93 78 64 52 64 71 69 69 67 66 67 66 65 63 61 60 61 62 64 66
64 73 73 62 67 59 28 33 36 20 17 357 2 10 352 73 76 64 48 63 79 95 113 114 120 86 65 79 81 74 71 69 68 69 68 65 60 59 59 59 61 63 63
63 72 53 61 69 69 54 36 48 14 343 355 26 350 338 31 83 82 66 56 67 72 97 114 126 124 107 90 85 79 74 70 68 68 68 63 55 54 53 53 61 66 63
75 78 67 49 76 65 40 20 36 11 332 353 15 5 357 349 360 53 65 47 42 56 59 69 84 107 122 118 105 93 81 71 67 66 65 59 51 47 47 50 58 58 58
62 65 66 60 72 79 64 13 42 21 311 315 11 52 79 270 308 314 15 59 41 35 22 44 57 76 101 114 117 110 94 75 63 60 57 54 45 44 45 46 55 51 59
84 74 65 87 88 67 86 345 31 341 355 326 329 335 323 143 157 309 321 349 46 48 356 22 51 61 83 102 112 107 111 98 69 55 49 49 45 42 41 38 42 49 58
113 82 54 73 59 39 50 23 24 1 353 344 328 325 328 332 299 164 296 311 332 327 333 45 87 85 97 117 126 120 126 128 115 77 50 45 44 34 34 29 37 48 52
162 127 78 55 80 46 47 24 4 25 340 344 338 338 339 341 328 331 294 290 296 291 300 355 120 150 154 144 139 147 148 155 164 151 106 40 25 18 22 17 34 40 33
164 175 132 246 76 60 49 58 14 351 342 2 351 342 339 325 340 2 359 324 325 306 323 297 205 170 190 156 155 168 170 175 184 182 193 204 308 331 340 359 28 22 11
176 157 151 157 114 103 74 75 23 350 346 353 334 340 340 338 357 8 21 0 339 327 329 298 297 183 160 156 172 181 183 189 193 195 209 222 237 259 300 303 244 312 325
142 134 137 131 126 119 113 102 78 331 350 332 308 314 324 327 342 350 4 24 47 316 311 300 320 307 156 137 161 183 180 200 199 198 209 216 227 241 258 260 235 241 281
159 154 153 151 150 129 107 92 102 328 44 356 335 345 339 330 345 355 360 355 357 273 288 302 309 309 325 164 196 206 206 214 208 206 212 214 218 229 244 248 241 247 265
156 149 150 151 149 138 137 113 128 360 37 349 337 333 316 328 346 318 316 307 301 291 283 302 315 325 324 324 272 242 232 204 199 209 210 213 221 230 239 244 244 243 254
164 154 142 132 121 118 123 136 195 261 274 309 306 315 308 328 319 298 284 269 276 266 260 285 302 311 308 305 300 284 249 221 191 207 211 215 222 230 235 238 237 234 241
145 158 145 142 136 128 107 246 213 232 262 268 260 276 296 328 311 314 313 299 287 285 272 263 285 294 298 309 322 315 305 281 241 216 214 220 226 231 231 230 232 234 241
144 163 170 171 157 132 99 356 318 264 273 280 282 268 289 328 302 302 304 297 293 291 288 288 292 301 297 296 325 316 310 305 286 259 224 225 228 237 231 228 229 232 239
234 177 173 146 130 121 84 1 302 299 287 293 296 289 290 324 339 340 333 320 306 286 287 285 285 299 302 321 297 280 286 291 286 270 267 239 208 215 226 230 233 233 229
220 59 298 140 122 127 110 27 336 282 265 265 283 302 314 315 350 343 341 343 333 303 291 274 271 277 279 275 277 280 286 296 287 284 284 276 222 223 215 215 231 226 217
12 25 268 232 165 155 130 62 328 302 273 263 266 298 309 332 339 316 308 317 323 314 301 283 278 276 279 280 274 275 271 266 265 257 248 269 254 243 233 239 230 220 218
94 281 280 299 250 165 128 73 316 283 276 288 298 310 311 321 330 326 302 303 299 303 291 284 273 279 279 283 269 263 260 272 275 277 220 260 256 246 248 224 228 213 216
285 267 251 264 254 157 127 106 27 297 302 305 311 319 316 294 326 335 329 310 302 297 301 294 292 296 293 297 294 296 286 275 279 278 259 242 256 252 246 234 219 213 217
245 264 267 252 186 157 140 130 111 291 303 300 305 305 307 315 323 329 303 293 292 293 307 310 302 297 287 293 295 260 248 256 268 272 262 235 251 241 270 252 207 203 216
Height
1535 1536 1536 1536 1535 1535 1535 1535 1534 1534 1534 1534 1534 1533 1533 1532 1531 1530 1530 1529 1529 1528 1527 1527 1526 1525 1525 1524 1524 1524 1523 1523 1522 1522 1522 1522 1522 1522 1523 1523 1524 1525 1525
1536 1536 1536 1536 1536 1536 1536 1535 1535 1535 1535 1534 1534 1534 1533 1533 1532 1531 1531 1530 1529 1529 1528 1527 1526 1525 1524 1524 1524 1523 1523 1523 1523 1523 1523 1523 1523 1523 1523 1524 1524 1525 1525
1536 1536 1536 1536 1536 1536 1536 1536 1535 1535 1535 1535 1535 1535 1534 1534 1533 1532 1531 1530 1530 1529 1528 1527 1526 1525 1524 1523 1523 1523 1523 1523 1523 1523 1523 1523 1523 1523 1524 1524 1524 1525 1525
1536 1536 1536 1536 1536 1536 1536 1536 1536 1536 1536 1535 1535 1535 1534 1534 1534 1533 1532 1531 1530 1530 1529 1528 1526 1525 1523 1522 1522 1523 1523 1523 1523 1524 1524 1524 1524 1524 1524 1524 1524 1525 1525
1536 1536 1536 1537 1536 1536 1536 1536 1536 1536 1536 1535 1535 1535 1534 1534 1534 1534 1533 1532 1532 1531 1529 1528 1526 1524 1521 1519 1521 1522 1523 1524 1524 1524 1524 1524 1524 1524 1524 1524 1524 1525 1525
1536 1536 1536 1536 1536 1536 1536 1536 1536 1536 1536 1536 1535 1535 1534 1534 1534 1533 1533 1533 1532 1531 1530 1528 1527 1524 1521 1519 1521 1523 1524 1524 1525 1525 1525 1525 1524 1524 1524 1524 1524 1525 1525
1535 1536 1536 1536 1536 1536 1536 1536 1536 1536 1536 1536 1535 1534 1534 1534 1534 1534 1534 1533 1533 1532 1530 1529 1528 1526 1524 1523 1523 1524 1525 1525 1525 1525 1525 1525 1524 1524 1524 1524 1524 1524 1525
1535 1535 1535 1535 1536 1536 1535 1535 1535 1535 1535 1535 1535 1535 1535 1535 1534 1534 1533 1533 1533 1532 1531 1530 1529 1527 1526 1525 1525 1525 1525 1526 1526 1526 1526 1525 1525 1524 1524 1524 1524 1524 1524
1535 1535 1535 1535 1535 1535 1535 1535 1535 1535 1535 1535 1536 1536 1535 1535 1534 1534 1533 1533 1532 1532 1531 1531 1530 1529 1527 1526 1526 1526 1526 1526 1526 1526 1526 1525 1525 1524 1524 1524 1524 1524 1524
1534 1534 1534 1534 1535 1535 1535 1534 1534 1534 1534 1534 1535 1535 1536 1535 1535 1534 1534 1533 1532 1531 1531 1530 1529 1529 1528 1527 1526 1526 1526 1526 1525 1526 1525 1525 1525 1524 1524 1523 1524 1524 1524
1533 1533 1533 1534 1534 1534 1534 1534 1533 1533 1534 1534 1534 1534 1534 1534 1534 1534 1532 1532 1531 1531 1530 1529 1529 1528 1527 1527 1526 1526 1526 1525 1525 1525 1525 1525 1524 1524 1523 1523 1523 1523 1523
1532 1532 1532 1532 1532 1533 1533 1532 1532 1532 1533 1533 1533 1533 1533 1533 1533 1533 1532 1531 1530 1530 1529 1528 1528 1527 1527 1526 1526 1525 1525 1525 1524 1524 1524 1524 1523 1523 1523 1522 1522 1522 1522
1530 1530 1530 1531 1531 1531 1531 1531 1531 1531 1531 1532 1532 1532 1532 1532 1532 1532 1531 1530 1529 1528 1528 1527 1527 1526 1526 1525 1525 1524 1524 1523 1523 1523 1523 1523 1522 1522 1522 1521 1521 1521 1521
1528 1529 1529 1530 1530 1530 1530 1530 1530 1530 1530 1530 1531 1531 1531 1531 1531 1530 1530 1529 1528 1527 1526 1526 1526 1525 1524 1524 1523 1522 1522 1522 1522 1521 1521 1521 1521 1521 1520 1520 1520 1520 1520
1527 1527 1527 1528 1528 1529 1529 1528 1528 1528 1529 1529 1529 1529 1529 1529 1529 1529 1528 1528 1528 1526 1525 1525 1524 1524 1523 1522 1521 1521 1520 1520 1520 1519 1519 1519 1519 1519 1519 1519 1518 1518 1518
1525 1525 1526 1526 1527 1527 1527 1527 1527 1527 1527 1527 1527 1528 1528 1527 1527 1527 1526 1526 1526 1525 1523 1523 1522 1522 1521 1520 1519 1518 1518 1518 1517 1517 1517 1517 1517 1517 1517 1517 1517 1517 1517
1523 1524 1524 1524 1525 1525 1525 1525 1526 1526 1526 1526 1526 1526 1526 1526 1525 1524 1524 1524 1523 1523 1521 1520 1520 1519 1518 1518 1517 1516 1516 1515 1515 1515 1515 1515 1515 1515 1515 1515 1515 1515 1515
1521 1522 1522 1522 1523 1523 1523 1524 1524 1524 1524 1524 1524 1524 1524 1524 1523 1522 1522 1521 1521 1520 1519 1517 1516 1516 1516 1515 1514 1514 1513 1513 1513 1513 1513 1513 1513 1513 1513 1513 1513 1513 1512
1519 1519 1520 1520 1521 1521 1521 1522 1522 1522 1522 1522 1522 1522 1522 1521 1521 1520 1519 1519 1518 1517 1516 1515 1514 1513 1513 1512 1512 1511 1511 1511 1511 1511 1510 1510 1510 1510 1510 1510 1510 1510 1510
1516 1517 1517 1518 1518 1519 1519 1520 1520 1520 1520 1520 1520 1520 1519 1519 1518 1518 1517 1516 1515 1514 1513 1512 1511 1511 1510 1510 1509 1509 1508 1508 1508 1508 1508 1507 1508 1508 1508 1508 1508 1507 1507
1514 1514 1515 1515 1516 1516 1517 1517 1517 1518 1518 1518 1518 1517 1517 1516 1516 1515 1515 1514 1513 1512 1511 1510 1509 1508 1507 1507 1506 1506 1505 1505 1505 1505 1505 1505 1504 1504 1504 1504 1505 1505 1504
1511 1512 1512 1513 1513 1514 1514 1514 1514 1515 1515 1515 1515 1515 1514 1514 1513 1512 1512 1511 1510 1509 1508 1507 1506 1505 1504 1504 1504 1503 1503 1502 1501 1502 1501 1501 1501 1501 1501 1501 1501 1501 1501
1508 1509 1509 1510 1510 1511 1511 1511 1511 1512 1512 1512 1512 1511 1511 1511 1510 1509 1508 1507 1507 1506 1506 1505 1503 1502 1501 1501 1501 1500 1499 1499 1498 1498 1498 1497 1497 1497 1498 1498 1498 1498 1498
1505 1505 1506 1507 1507 1507 1508 1508 1508 1509 1509 1509 1508 1508 1508 1507 1506 1506 1505 1503 1503 1502 1501 1500 1500 1499 1498 1498 1497 1497 1496 1495 1494 1494 1495 1493 1493 1493 1494 1494 1494 1495 1495
1502 1503 1503 1503 1504 1504 1504 1505 1505 1505 1505 1505 1505 1505 1504 1504 1503 1502 1501 1500 1499 1498 1498 1497 1496 1495 1494 1494 1493 1492 1491 1491 1489 1489 1490 1490 1489 1488 1489 1489 1490 1491 1491
1500 1500 1500 1501 1502 1501 1501 1501 1502 1502 1502 1502 1501 1501 1500 1500 1499 1499 1498 1496 1495 1494 1493 1492 1491 1490 1490 1489 1489 1488 1488 1487 1486 1485 1486 1486 1485 1485 1484 1485 1485 1486 1486